Aérodrome :
LOGIN :

S'inscrire | Disclaimer

   EN    FR    IT 

 










Légende :    VFR   VFR Marginal   IFR   IFR Intensif   IFR Très Intensif
Visi : 
Plafond : 
>= 8 km
>= 3000ft
5 à 8 km
1000 à 3000 ft
1500m à 5 km
500 à 1000 ft
800 à 1500m
200 à 500 ft
< 800m
< 200 ft
Symboles :   Orages  Brouillard  Fortes neiges  Fortes précipitations  Vent > 20 kt
SIGMETs :   Divers  Orages  Givrage  Turbulence  Onde Orograph.  Cendres Volcan.







- Altitude de l'aérodrome : 640 ft
- Code IATA : AOC


EDAC - Altenburg-Nobitz

DERNIER METAR :
  • 230550Z AUTO 13002KT 9000 // SCT210/// OVC240/// M12/M14 Q1001

METARs EXPIRÉS :
  • 230520Z AUTO VRB01KT 8000 // BKN200/// BKN230/// M12/M14 Q1001
  • 230450Z AUTO VRB01KT 9000 // BKN210/// M12/M14 Q1001
  • 230420Z AUTO VRB01KT 8000 // SCT230/// M12/M14 Q1001
  • 230350Z AUTO VRB01KT 8000 // SCT230/// M12/M14 Q1002
  • 230320Z AUTO VRB02KT 8000 // NCD M12/M14 Q1002

Prévision TAF périmée.
Pas de NOTAMs connus pour ce terrain.



MET'MAP, la Météo Aéronautique d'un coup d'oeil ! - Copyright ORBIFLY Décembre 2007 - Disclaimer

ORBIFLY MET'MAP TEAM :

Programmation & Développement : Alexandra Zaïnal
Conception & Développement : Baudouin d'Aumeries
Co-Programmation & Développement : Marc-Olivier Méhu
Soutien technique & logistique : Manuel Goepfert

Contact : metmap@orbifly.com




SOURCES & CREDITS :

   NOAA